UMB1 LIRZ-LGSK

Flight info

Callsign UMB1
Flight time 1h 58m
Altitude 37000
Route KATAR DCT ETRIN DCT AIOSA DCT EBELA DCT PINDO DCT AGH DCT EVIKO
Aircraft P180/L-SBDFGM3RWXY/LB1

Departure

Time 2026-05-04 13:22
Airport Perugia San Francesco d'Assisi – Umbria International Airport (LIRZ)

Arrival

Time 2026-05-04 15:20
Airport Skiathos Island National Airport (LGSK)
Time Latitude Longitude Altitude Speed Heading
2026-05-04 13:07 43.09355 12.50425 681 ft 0 kts 160°
2026-05-04 13:16 43.09342 12.50431 678 ft 5 kts 160°
2026-05-04 13:16 43.09345 12.50490 681 ft 9 kts 70°
2026-05-04 13:17 43.09399 12.50520 681 ft 12 kts 334°
2026-05-04 13:17 43.09494 12.50468 682 ft 17 kts 339°
2026-05-04 13:17 43.09572 12.50556 682 ft 18 kts 65°
2026-05-04 13:17 43.09625 12.50717 682 ft 20 kts 66°
2026-05-04 13:18 43.09686 12.50903 683 ft 22 kts 65°
2026-05-04 13:18 43.09751 12.51101 685 ft 24 kts 66°
2026-05-04 13:18 43.09846 12.51184 686 ft 15 kts
2026-05-04 13:18 43.09953 12.51217 688 ft 16 kts 14°
2026-05-04 13:19 43.10066 12.51257 689 ft 18 kts 14°
2026-05-04 13:19 43.10190 12.51300 690 ft 19 kts 14°
2026-05-04 13:19 43.10320 12.51345 692 ft 20 kts 15°
2026-05-04 13:19 43.10457 12.51392 694 ft 21 kts 14°
2026-05-04 13:20 43.10601 12.51443 695 ft 22 kts 14°
2026-05-04 13:20 43.10751 12.51496 697 ft 23 kts 19°
2026-05-04 13:20 43.10777 12.51597 697 ft 0 kts 105°
2026-05-04 13:20 43.10776 12.51602 697 ft 2 kts 105°
2026-05-04 13:21 43.10745 12.51707 697 ft 16 kts 146°
2026-05-04 13:21 43.10615 12.51680 697 ft 36 kts 195°
2026-05-04 13:21 43.10014 12.51468 736 ft 127 kts 197°
2026-05-04 13:21 43.09106 12.51124 1197 ft 147 kts 198°
2026-05-04 13:22 43.08068 12.50754 1706 ft 158 kts 197°
2026-05-04 13:22 43.06978 12.50394 2298 ft 159 kts 195°
2026-05-04 13:22 43.05916 12.50040 2911 ft 160 kts 194°
2026-05-04 13:22 43.04864 12.49542 3407 ft 162 kts 209°
2026-05-04 13:23 43.03874 12.48770 4268 ft 162 kts 207°
2026-05-04 13:23 43.02880 12.48031 5142 ft 163 kts 206°
2026-05-04 13:23 43.01888 12.47293 5939 ft 164 kts 206°
2026-05-04 13:23 43.00864 12.46531 6705 ft 168 kts 206°
2026-05-04 13:24 42.99843 12.45770 7375 ft 170 kts 206°
2026-05-04 13:24 42.98799 12.44993 8037 ft 171 kts 206°
2026-05-04 13:24 42.97739 12.44205 8680 ft 175 kts 206°
2026-05-04 13:25 42.95583 12.42608 10047 ft 180 kts 206°
2026-05-04 13:25 42.94478 12.41780 10671 ft 181 kts 206°
2026-05-04 13:25 42.93364 12.40950 11253 ft 182 kts 206°
2026-05-04 13:25 42.92246 12.40121 11841 ft 184 kts 207°
2026-05-04 13:26 42.91133 12.39296 12591 ft 183 kts 206°
2026-05-04 13:26 42.89944 12.38503 12952 ft 201 kts 195°
2026-05-04 13:26 42.88470 12.38553 13029 ft 227 kts 162°
2026-05-04 13:26 42.87181 12.39913 13257 ft 247 kts 126°
2026-05-04 13:27 42.86621 12.42115 13773 ft 252 kts 105°
2026-05-04 13:27 42.86381 12.44513 14202 ft 256 kts 100°
2026-05-04 13:27 42.86163 12.46941 14570 ft 260 kts 101°
2026-05-04 13:27 42.86171 12.49398 14913 ft 269 kts 79°
2026-05-04 13:28 42.87044 12.51680 15280 ft 277 kts 50°
2026-05-04 13:28 42.88569 12.53315 15635 ft 280 kts 33°
2026-05-04 13:28 42.90226 12.54719 16016 ft 281 kts 31°
2026-05-04 13:28 42.91904 12.56140 16390 ft 284 kts 31°
2026-05-04 13:29 42.93552 12.57587 16769 ft 285 kts 32°
2026-05-04 13:29 42.95213 12.59058 17127 ft 287 kts 31°
2026-05-04 13:29 42.96915 12.60544 17470 ft 288 kts 30°
2026-05-04 13:29 42.98595 12.62007 17790 ft 290 kts 30°
2026-05-04 13:30 43.00309 12.63507 18117 ft 292 kts 30°
2026-05-04 13:30 43.01982 12.64980 18825 ft 274 kts 29°
2026-05-04 13:30 43.03421 12.66456 19797 ft 250 kts 43°
2026-05-04 13:30 43.04312 12.68435 20432 ft 246 kts 71°
2026-05-04 13:31 43.04496 12.70773 20737 ft 249 kts 98°
2026-05-04 13:31 43.04092 12.73038 21125 ft 248 kts 108°
2026-05-04 13:31 43.03604 12.75304 21502 ft 249 kts 109°
2026-05-04 13:31 43.03119 12.77596 21921 ft 250 kts 108°
2026-05-04 13:32 43.02644 12.79875 22354 ft 252 kts 108°
2026-05-04 13:32 43.02163 12.82193 22806 ft 254 kts 108°
2026-05-04 13:32 43.01674 12.84521 23229 ft 256 kts 108°
2026-05-04 13:32 43.01184 12.86853 23642 ft 257 kts 108°
2026-05-04 13:33 43.00695 12.89188 24009 ft 258 kts 108°
2026-05-04 13:33 43.00199 12.91555 24417 ft 259 kts 108°
2026-05-04 13:33 42.99695 12.93941 24829 ft 260 kts 108°
2026-05-04 13:33 42.99198 12.96301 25233 ft 261 kts 108°
2026-05-04 13:34 42.98699 12.98671 25645 ft 262 kts 108°
2026-05-04 13:34 42.98191 13.01075 26048 ft 263 kts 108°
2026-05-04 13:34 42.97680 13.03493 26456 ft 264 kts 108°
2026-05-04 13:34 42.97174 13.05888 26854 ft 265 kts 108°
2026-05-04 13:35 42.96654 13.08322 27251 ft 266 kts 108°
2026-05-04 13:35 42.95621 13.13182 28074 ft 269 kts 108°
2026-05-04 13:35 42.95097 13.15648 28493 ft 270 kts 108°
2026-05-04 13:36 42.94568 13.18131 28910 ft 272 kts 108°
2026-05-04 13:36 42.94040 13.20604 29324 ft 274 kts 108°
2026-05-04 13:36 42.93509 13.23095 29727 ft 275 kts 108°
2026-05-04 13:36 42.92968 13.25631 30159 ft 277 kts 108°
2026-05-04 13:37 42.92431 13.28142 30489 ft 279 kts 108°
2026-05-04 13:37 42.91882 13.30706 30782 ft 284 kts 108°
2026-05-04 13:37 42.91322 13.33318 31112 ft 285 kts 108°
2026-05-04 13:37 42.90950 13.35049 31359 ft 286 kts 108°
2026-05-04 13:38 42.90205 13.38519 31885 ft 287 kts 107°
2026-05-04 13:38 42.89639 13.41138 32392 ft 287 kts 107°
2026-05-04 13:38 42.89076 13.43729 32909 ft 287 kts 107°
2026-05-04 13:38 42.88511 13.46349 33413 ft 287 kts 107°
2026-05-04 13:39 42.87954 13.48944 33891 ft 288 kts 107°
2026-05-04 13:39 42.87392 13.51551 34330 ft 288 kts 107°
2026-05-04 13:39 42.86821 13.54184 34729 ft 289 kts 107°
2026-05-04 13:39 42.86247 13.56831 35118 ft 290 kts 107°
2026-05-04 13:40 42.85679 13.59449 35484 ft 291 kts 107°
2026-05-04 13:40 42.85107 13.62081 35843 ft 292 kts 107°
2026-05-04 13:40 42.84531 13.64733 36324 ft 293 kts 107°
2026-05-04 13:40 42.83950 13.67415 36852 ft 294 kts 107°
2026-05-04 13:41 42.83361 13.70113 37067 ft 299 kts 107°
2026-05-04 13:41 42.82760 13.72855 37088 ft 310 kts 107°
2026-05-04 13:41 42.82131 13.75727 37101 ft 320 kts 107°
2026-05-04 13:42 42.80822 13.81707 37100 ft 340 kts 107°
2026-05-04 13:42 42.80138 13.84827 37102 ft 353 kts 106°
2026-05-04 13:42 42.79416 13.88120 37098 ft 366 kts 107°
2026-05-04 13:42 42.78674 13.91485 37102 ft 378 kts 107°
2026-05-04 13:43 42.77909 13.94946 37096 ft 389 kts 107°
2026-05-04 13:43 42.77114 13.98545 37096 ft 399 kts 107°
2026-05-04 13:43 42.75487 14.05890 37097 ft 414 kts 107°
2026-05-04 13:44 42.73792 14.13509 37103 ft 425 kts 107°
2026-05-04 13:44 42.72060 14.21274 37101 ft 433 kts 107°
2026-05-04 13:45 42.70294 14.29156 37101 ft 438 kts 107°
2026-05-04 13:45 42.68509 14.37099 37103 ft 442 kts 107°
2026-05-04 13:46 42.66713 14.45058 37100 ft 444 kts 107°
2026-05-04 13:46 42.64891 14.53109 37098 ft 446 kts 107°
2026-05-04 13:47 42.63053 14.61193 37096 ft 447 kts 107°
2026-05-04 13:47 42.61220 14.69229 37095 ft 448 kts 107°
2026-05-04 13:48 42.59243 14.77270 37099 ft 449 kts 109°
2026-05-04 13:48 42.57205 14.85266 37099 ft 449 kts 109°
2026-05-04 13:49 42.55164 14.93238 37107 ft 449 kts 109°
2026-05-04 13:49 42.53097 15.01279 37108 ft 449 kts 109°
2026-05-04 13:50 42.51049 15.09230 37118 ft 449 kts 109°
2026-05-04 13:50 42.48979 15.17229 37112 ft 449 kts 109°
2026-05-04 13:51 42.46903 15.25230 37111 ft 449 kts 109°
2026-05-04 13:51 42.44824 15.33213 37108 ft 449 kts 109°
2026-05-04 13:52 42.41707 15.45137 37103 ft 449 kts 109°
2026-05-04 13:53 42.39609 15.53127 37105 ft 449 kts 109°
2026-05-04 13:53 42.37523 15.61045 37104 ft 449 kts 109°
2026-05-04 13:54 42.34367 15.72977 37099 ft 449 kts 109°
2026-05-04 13:55 42.31244 15.84726 37093 ft 434 kts 109°
2026-05-04 13:55 42.28177 15.96202 37086 ft 429 kts 109°
2026-05-04 13:56 42.26166 16.03703 37087 ft 424 kts 109°
2026-05-04 13:57 42.23162 16.14866 37082 ft 419 kts 109°
2026-05-04 13:58 42.19191 16.29540 37092 ft 416 kts 109°
2026-05-04 13:58 42.16209 16.40506 37094 ft 414 kts 109°
2026-05-04 13:59 42.14226 16.47775 37097 ft 413 kts 109°
2026-05-04 14:00 42.11245 16.58658 37098 ft 413 kts 109°
2026-05-04 14:00 42.08256 16.69519 37098 ft 412 kts 109°
2026-05-04 14:01 42.06269 16.76716 37097 ft 412 kts 109°
2026-05-04 14:02 42.03270 16.87536 37103 ft 412 kts 109°
2026-05-04 14:02 42.01268 16.94732 37105 ft 412 kts 109°
2026-05-04 14:03 41.99243 17.01987 37103 ft 412 kts 109°
2026-05-04 14:03 41.97229 17.09197 37104 ft 412 kts 109°
2026-05-04 14:04 41.94193 17.20007 37113 ft 413 kts 109°
2026-05-04 14:04 41.91887 17.27053 37110 ft 415 kts 119°
2026-05-04 14:05 41.87544 17.37108 37119 ft 416 kts 118°
2026-05-04 14:06 41.84650 17.43783 37118 ft 416 kts 119°
2026-05-04 14:06 41.82225 17.49374 37116 ft 416 kts 118°
2026-05-04 14:07 41.79305 17.56103 37121 ft 416 kts 118°
2026-05-04 14:07 41.76397 17.62773 37122 ft 416 kts 118°
2026-05-04 14:08 41.73478 17.69466 37122 ft 416 kts 118°
2026-05-04 14:08 41.70547 17.76164 37121 ft 416 kts 118°
2026-05-04 14:09 41.66151 17.86187 37121 ft 416 kts 118°
2026-05-04 14:10 41.61758 17.96167 37119 ft 416 kts 118°
2026-05-04 14:10 41.58806 18.02855 37122 ft 416 kts 118°
2026-05-04 14:11 41.55862 18.09512 37123 ft 416 kts 118°
2026-05-04 14:11 41.51442 18.19475 37122 ft 416 kts 118°
2026-05-04 14:12 41.48490 18.26113 37121 ft 416 kts 118°
2026-05-04 14:13 41.44053 18.36062 37120 ft 416 kts 118°
2026-05-04 14:13 41.41101 18.42659 37121 ft 416 kts 118°
2026-05-04 14:14 41.38143 18.49263 37119 ft 416 kts 118°
2026-05-04 14:14 41.33679 18.59191 37122 ft 416 kts 118°
2026-05-04 14:15 41.27732 18.72373 37119 ft 416 kts 118°
2026-05-04 14:16 41.23262 18.82245 37118 ft 416 kts 118°
2026-05-04 14:17 41.18899 18.92157 37117 ft 413 kts 111°
2026-05-04 14:18 41.15398 19.02584 37121 ft 413 kts 111°
2026-05-04 14:19 41.10709 19.16473 37118 ft 412 kts 110°
2026-05-04 14:19 41.08361 19.23393 37124 ft 412 kts 110°
2026-05-04 14:20 41.06004 19.30328 37122 ft 412 kts 110°
2026-05-04 14:20 41.03648 19.37241 37119 ft 413 kts 110°
2026-05-04 14:21 41.00088 19.47655 37127 ft 413 kts 110°
2026-05-04 14:21 40.97714 19.54580 37121 ft 414 kts 110°
2026-05-04 14:22 40.95330 19.61516 37122 ft 414 kts 110°
2026-05-04 14:22 40.92945 19.68436 37124 ft 414 kts 110°
2026-05-04 14:23 40.89361 19.78803 37121 ft 413 kts 110°
2026-05-04 14:24 40.86966 19.85712 37118 ft 413 kts 110°
2026-05-04 14:24 40.84582 19.92570 37117 ft 413 kts 110°
2026-05-04 14:25 40.82174 19.99483 37113 ft 412 kts 110°
2026-05-04 14:25 40.78582 20.09763 37104 ft 412 kts 111°
2026-05-04 14:26 40.76183 20.16608 37109 ft 412 kts 111°
2026-05-04 14:26 40.73765 20.23489 37112 ft 411 kts 110°
2026-05-04 14:27 40.71365 20.30303 37106 ft 411 kts 111°
2026-05-04 14:27 40.68956 20.37126 37107 ft 412 kts 111°
2026-05-04 14:28 40.66533 20.43976 37108 ft 411 kts 111°
2026-05-04 14:28 40.64118 20.50783 37108 ft 411 kts 111°
2026-05-04 14:29 40.59279 20.64374 37105 ft 411 kts 111°
2026-05-04 14:30 40.56844 20.71190 37102 ft 410 kts 111°
2026-05-04 14:31 40.53189 20.81394 37108 ft 411 kts 111°
2026-05-04 14:32 40.47999 20.94730 37105 ft 412 kts 117°
2026-05-04 14:32 40.45031 21.01152 37100 ft 413 kts 117°
2026-05-04 14:33 40.42001 21.07586 37105 ft 413 kts 117°
2026-05-04 14:33 40.38999 21.14010 37105 ft 413 kts 117°
2026-05-04 14:34 40.35973 21.20438 37102 ft 414 kts 117°
2026-05-04 14:34 40.32970 21.26823 37106 ft 414 kts 117°
2026-05-04 14:35 40.29926 21.33270 37103 ft 414 kts 118°
2026-05-04 14:35 40.26912 21.39647 37107 ft 414 kts 118°
2026-05-04 14:36 40.23868 21.46072 37111 ft 414 kts 118°
2026-05-04 14:36 40.20839 21.52453 37116 ft 414 kts 118°
2026-05-04 14:37 40.17782 21.58878 37121 ft 414 kts 118°
2026-05-04 14:37 40.14748 21.65243 37122 ft 414 kts 118°
2026-05-04 14:38 40.11689 21.71645 37127 ft 414 kts 118°
2026-05-04 14:38 40.08633 21.78035 36749 ft 421 kts 118°
2026-05-04 14:38 40.07075 21.81276 36285 ft 418 kts 118°
2026-05-04 14:39 40.05530 21.84493 35736 ft 414 kts 117°
2026-05-04 14:39 40.04029 21.87620 35201 ft 407 kts 117°
2026-05-04 14:39 40.02533 21.90731 34670 ft 401 kts 117°
2026-05-04 14:40 39.99579 21.96872 33274 ft 398 kts 117°
2026-05-04 14:40 39.98114 21.99912 32493 ft 398 kts 117°
2026-05-04 14:40 39.96636 22.02969 31721 ft 397 kts 117°
2026-05-04 14:40 39.95162 22.06010 31201 ft 391 kts 117°
2026-05-04 14:41 39.93741 22.08947 30700 ft 384 kts 117°
2026-05-04 14:41 39.92321 22.11886 30198 ft 379 kts 117°
2026-05-04 14:41 39.89564 22.17571 29169 ft 362 kts 117°
2026-05-04 14:42 39.86932 22.22987 28238 ft 344 kts 117°
2026-05-04 14:42 39.85668 22.25592 27786 ft 336 kts 117°
2026-05-04 14:42 39.84444 22.28110 27347 ft 329 kts 117°
2026-05-04 14:43 39.83229 22.30600 26918 ft 322 kts 118°
2026-05-04 14:43 39.82037 22.33045 26495 ft 315 kts 118°
2026-05-04 14:43 39.80872 22.35434 26087 ft 309 kts 118°
2026-05-04 14:43 39.79741 22.37752 25692 ft 304 kts 118°
2026-05-04 14:44 39.78615 22.40057 25294 ft 299 kts 118°
2026-05-04 14:44 39.77508 22.42322 24909 ft 293 kts 119°
2026-05-04 14:44 39.76431 22.44525 24534 ft 289 kts 119°
2026-05-04 14:44 39.75360 22.46714 24156 ft 284 kts 120°
2026-05-04 14:45 39.74311 22.48854 23784 ft 280 kts 120°
2026-05-04 14:45 39.73267 22.50982 23384 ft 275 kts 120°
2026-05-04 14:45 39.72254 22.53045 23024 ft 269 kts 120°
2026-05-04 14:45 39.71255 22.55085 22675 ft 264 kts 120°
2026-05-04 14:46 39.70277 22.57075 22336 ft 259 kts 121°
2026-05-04 14:46 39.69313 22.59034 21995 ft 254 kts 121°
2026-05-04 14:46 39.68378 22.60935 21672 ft 250 kts 121°
2026-05-04 14:46 39.67443 22.62835 21344 ft 247 kts 121°
2026-05-04 14:47 39.66521 22.64707 21022 ft 244 kts 121°
2026-05-04 14:47 39.65618 22.66540 20709 ft 241 kts 121°
2026-05-04 14:47 39.64709 22.68394 20391 ft 244 kts 121°
2026-05-04 14:47 39.63800 22.70243 20066 ft 245 kts 121°
2026-05-04 14:48 39.62874 22.72114 19742 ft 246 kts 121°
2026-05-04 14:48 39.61945 22.73992 19416 ft 246 kts 121°
2026-05-04 14:48 39.61019 22.75861 19092 ft 244 kts 121°
2026-05-04 14:48 39.60118 22.77682 18778 ft 242 kts 121°
2026-05-04 14:49 39.59212 22.79516 18458 ft 240 kts 121°
2026-05-04 14:49 39.58313 22.81332 18115 ft 238 kts 121°
2026-05-04 14:49 39.57424 22.83125 17796 ft 234 kts 120°
2026-05-04 14:49 39.56553 22.84882 17493 ft 232 kts 120°
2026-05-04 14:50 39.55689 22.86626 17179 ft 230 kts 120°
2026-05-04 14:50 39.54827 22.88364 16887 ft 228 kts 120°
2026-05-04 14:50 39.53969 22.90094 16600 ft 226 kts 120°
2026-05-04 14:50 39.53125 22.91794 16303 ft 225 kts 120°
2026-05-04 14:51 39.52279 22.93499 16009 ft 224 kts 120°
2026-05-04 14:51 39.51435 22.95196 15712 ft 224 kts 120°
2026-05-04 14:51 39.50590 22.96897 15418 ft 223 kts 119°
2026-05-04 14:51 39.49758 22.98568 15128 ft 222 kts 119°
2026-05-04 14:52 39.48920 23.00250 14832 ft 222 kts 119°
2026-05-04 14:52 39.48090 23.01916 14544 ft 221 kts 119°
2026-05-04 14:52 39.47253 23.03594 14254 ft 221 kts 119°
2026-05-04 14:52 39.46416 23.05275 13954 ft 221 kts 118°
2026-05-04 14:53 39.45579 23.06952 13644 ft 221 kts 118°
2026-05-04 14:53 39.44744 23.08625 13345 ft 220 kts 118°
2026-05-04 14:53 39.43913 23.10286 13049 ft 220 kts 118°
2026-05-04 14:53 39.43095 23.11923 12771 ft 218 kts 118°
2026-05-04 14:54 39.42268 23.13580 12478 ft 218 kts 118°
2026-05-04 14:54 39.41442 23.15232 12192 ft 218 kts 118°
2026-05-04 14:54 39.40627 23.16857 11910 ft 217 kts 118°
2026-05-04 14:54 39.39800 23.18509 11627 ft 217 kts 119°
2026-05-04 14:55 39.38986 23.20133 11340 ft 217 kts 119°
2026-05-04 14:55 39.38162 23.21777 11059 ft 216 kts 118°
2026-05-04 14:55 39.37622 23.22854 10868 ft 215 kts 119°
2026-05-04 14:55 39.36541 23.25007 10493 ft 214 kts 118°
2026-05-04 14:56 39.35999 23.26087 10314 ft 214 kts 119°
2026-05-04 14:56 39.35185 23.27706 10032 ft 213 kts 119°
2026-05-04 14:56 39.34385 23.29299 9735 ft 212 kts 119°
2026-05-04 14:56 39.33582 23.30894 9452 ft 211 kts 119°
2026-05-04 14:57 39.32784 23.32482 9178 ft 210 kts 119°
2026-05-04 14:57 39.32008 23.34021 9133 ft 198 kts 119°
2026-05-04 14:57 39.31285 23.35454 9121 ft 187 kts 118°
2026-05-04 14:57 39.30589 23.36840 9019 ft 183 kts 118°
2026-05-04 14:58 39.29881 23.38253 8730 ft 190 kts 118°
2026-05-04 14:58 39.29144 23.39718 8314 ft 201 kts 119°
2026-05-04 14:58 39.28358 23.41276 7823 ft 212 kts 119°
2026-05-04 14:58 39.27537 23.42901 7341 ft 219 kts 119°
2026-05-04 14:59 39.26714 23.44524 7063 ft 216 kts 119°
2026-05-04 14:59 39.25895 23.46142 6791 ft 212 kts 119°
2026-05-04 14:59 39.24312 23.49276 6226 ft 207 kts 119°
2026-05-04 15:00 39.23528 23.50827 5953 ft 204 kts 119°
2026-05-04 15:00 39.22754 23.52356 5677 ft 202 kts 120°
2026-05-04 15:00 39.21994 23.53856 5414 ft 200 kts 120°
2026-05-04 15:01 39.20471 23.56863 4883 ft 199 kts 120°
2026-05-04 15:01 39.19719 23.58346 4624 ft 199 kts 120°
2026-05-04 15:01 39.18906 23.59795 4353 ft 200 kts 135°
2026-05-04 15:01 39.17681 23.60586 4140 ft 201 kts 172°
2026-05-04 15:02 39.16358 23.60464 4119 ft 182 kts 204°
2026-05-04 15:02 39.15265 23.59782 4120 ft 169 kts 213°
2026-05-04 15:02 39.14173 23.59054 4100 ft 184 kts 212°
2026-05-04 15:02 39.13011 23.58295 4108 ft 193 kts 211°
2026-05-04 15:03 39.11787 23.57507 4110 ft 198 kts 211°
2026-05-04 15:03 39.10542 23.56696 4114 ft 201 kts 211°
2026-05-04 15:03 39.09287 23.55875 4042 ft 208 kts 211°
2026-05-04 15:03 39.07963 23.55007 3900 ft 215 kts 211°
2026-05-04 15:04 39.06630 23.54138 3763 ft 219 kts 211°
2026-05-04 15:04 39.05253 23.53245 3604 ft 221 kts 211°
2026-05-04 15:04 39.03934 23.52376 3393 ft 206 kts 211°
2026-05-04 15:04 39.02721 23.51500 3165 ft 192 kts 222°
2026-05-04 15:05 39.01983 23.50214 2991 ft 173 kts 252°
2026-05-04 15:05 39.01801 23.48759 2835 ft 159 kts 277°
2026-05-04 15:05 39.02153 23.47497 2700 ft 147 kts 315°
2026-05-04 15:05 39.03077 23.47134 2586 ft 147 kts
2026-05-04 15:06 39.04118 23.47245 2509 ft 153 kts
2026-05-04 15:06 39.05190 23.47362 2452 ft 155 kts
2026-05-04 15:06 39.06262 23.47474 2404 ft 153 kts
2026-05-04 15:07 39.08441 23.47676 2298 ft 171 kts
2026-05-04 15:07 39.09656 23.47759 2197 ft 177 kts
2026-05-04 15:07 39.10877 23.47784 2097 ft 164 kts 356°
2026-05-04 15:07 39.12010 23.47800 1619 ft 165 kts 358°
2026-05-04 15:08 39.13169 23.47893 1068 ft 167 kts
2026-05-04 15:08 39.14245 23.48319 1226 ft 172 kts 23°
2026-05-04 15:08 39.15289 23.48945 1997 ft 154 kts 21°
2026-05-04 15:08 39.16270 23.49526 2325 ft 155 kts 21°
2026-05-04 15:09 39.17247 23.50057 2715 ft 157 kts 18°
2026-05-04 15:09 39.18213 23.50543 3158 ft 155 kts 21°
2026-05-04 15:09 39.18942 23.51728 3629 ft 182 kts 62°
2026-05-04 15:10 39.19588 23.55004 3955 ft 213 kts 95°
2026-05-04 15:10 39.19152 23.56949 3983 ft 230 kts 105°
2026-05-04 15:10 39.18213 23.60821 4021 ft 224 kts 101°
2026-05-04 15:11 39.17674 23.62725 4001 ft 228 kts 121°
2026-05-04 15:11 39.16612 23.64234 3993 ft 228 kts 143°
2026-05-04 15:11 39.15199 23.64926 3989 ft 209 kts 179°
2026-05-04 15:11 39.13876 23.64569 3992 ft 190 kts 211°
2026-05-04 15:12 39.12902 23.63544 3986 ft 175 kts 233°
2026-05-04 15:12 39.12008 23.62438 3992 ft 182 kts 227°
2026-05-04 15:12 39.11040 23.61334 3989 ft 188 kts 227°
2026-05-04 15:12 39.10058 23.60165 3791 ft 201 kts 228°
2026-05-04 15:13 39.09003 23.58882 3520 ft 212 kts 227°
2026-05-04 15:13 39.07915 23.57570 3234 ft 220 kts 227°
2026-05-04 15:13 39.06774 23.56199 2930 ft 225 kts 226°
2026-05-04 15:13 39.05639 23.54835 2628 ft 218 kts 226°
2026-05-04 15:14 39.04578 23.53554 2349 ft 202 kts 226°
2026-05-04 15:14 39.03607 23.52381 2090 ft 177 kts 226°
2026-05-04 15:14 39.02814 23.51332 2017 ft 153 kts 239°
2026-05-04 15:14 39.02426 23.50111 1989 ft 145 kts 262°
2026-05-04 15:15 39.02430 23.48826 1872 ft 144 kts 284°
2026-05-04 15:15 39.02808 23.47675 1799 ft 135 kts 305°
2026-05-04 15:15 39.03430 23.46836 1712 ft 130 kts 324°
2026-05-04 15:16 39.05122 23.46407 1491 ft 132 kts 11°
2026-05-04 15:16 39.06006 23.46698 1391 ft 128 kts 11°
2026-05-04 15:16 39.07786 23.47087 1436 ft 134 kts
2026-05-04 15:17 39.08714 23.47230 1439 ft 136 kts
2026-05-04 15:17 39.10577 23.47496 1393 ft 130 kts
2026-05-04 15:17 39.11445 23.47687 1242 ft 123 kts
2026-05-04 15:18 39.12269 23.47959 1081 ft 125 kts 14°
2026-05-04 15:18 39.13104 23.48316 945 ft 126 kts 17°
2026-05-04 15:18 39.13943 23.48680 750 ft 126 kts 17°
2026-05-04 15:19 39.15526 23.49386 363 ft 119 kts 19°
2026-05-04 15:19 39.16325 23.49756 188 ft 124 kts 20°
2026-05-04 15:19 39.17686 23.50358 35 ft 57 kts 19°
2026-05-04 15:20 39.17908 23.50457 36 ft 10 kts 18°
2026-05-04 15:20 39.17945 23.50481 38 ft 7 kts 21°
2026-05-04 15:20 39.17909 23.50453 36 ft 15 kts 195°
2026-05-04 15:20 39.17783 23.50398 32 ft 22 kts 199°
2026-05-04 15:21 39.17702 23.50311 34 ft 13 kts 290°
2026-05-04 15:21 39.17721 23.50260 33 ft 0 kts 302°
2026-05-04 15:22 39.17728 23.50197 33 ft 9 kts 198°
2026-05-04 15:23 39.17658 23.50169 33 ft 6 kts 187°
2026-05-04 15:23 39.17651 23.50181 33 ft 3 kts 106°
2026-05-04 15:23 39.17648 23.50196 33 ft 0 kts 108°